Flag for U.S.A. Weather past 2 weeks in Lexington, Virginia, U.S.A.

Now
32 °F

Clear.


Feels Like: 26 °F
Forecast: 29 / 47 °F
Wind: 7 mph from South

Location: Hot Springs / Ingalls

Current Time: Dec 21, 2014 at 6:36:36 PM

Latest Report: Dec 21, 2014 at 6:15 PM


Visibility: 10 mi

Pressure: 30.11 "Hg

Humidity: 81%

Dew point: 27 °F

Location of LexingtonLocation

Historic Weather in Lexington — Graph

°F

Lexington temperature yesterday

Maximum temperature yesterday: 32 °F (at 2:55 PM)
Minimum temperature yesterday: 21 °F (at 12:35 AM)
Average temperature yesterday: 29 °F

Past Weeks' High & Low Weather Summary

 TemperatureHumidityPressure
High50 °F (Dec 6, 5:15 PM)100% (Dec 6, 5:15 PM)30.37 "Hg (Dec 6, 5:15 PM)
Low18 °F (Dec 11, 4:55 AM)31% (Dec 12, 1:55 PM)29.76 "Hg (Dec 11, 1:15 AM)
Average31 °F81%30.01 "Hg
* Reported Dec 6 5:15 PM — Dec 21 5:15 PM, Lexington, Weather by CustomWeather, © 2014

Note: Actual official high and low records may vary slightly from our data, if they occured in-between our weather recording intervals... More about our weather records

Advertising

Lexington weather history for previous 24 hours

 ConditionsComfort  
Time TempWeatherWind HumidityBarometerVisibility
5:15 PM
Dec 21
33 °FClear.6 mph75%30.10 "Hg10 mi
4:15 PM36 °FSunny.7 mph67%30.12 "Hg10 mi
3:55 PM36 °FSunny.7 mph65%30.10 "Hg10 mi
3:35 PM36 °FSunny.5 mph66%30.11 "Hg10 mi
3:15 PM37 °FSunny.5 mph64%30.11 "Hg10 mi
2:55 PM37 °FSunny.6 mph63%30.10 "Hg10 mi
2:35 PM36 °FScattered clouds.5 mph64%30.09 "Hg10 mi
2:15 PM37 °FScattered clouds.5 mph63%30.10 "Hg10 mi
1:55 PM37 °FScattered clouds.5 mph63%30.10 "Hg10 mi
1:35 PM37 °FScattered clouds.3 mph63%30.11 "Hg10 mi
1:15 PM36 °FScattered clouds.3 mph65%30.12 "Hg10 mi
12:55 PM36 °FScattered clouds.No wind65%30.12 "Hg10 mi
12:35 PM36 °FPartly sunny.3 mph64%30.13 "Hg10 mi
12:15 PM34 °FScattered clouds.No wind66%30.14 "Hg10 mi
11:55 AM35 °FSunny.7 mph65%30.15 "Hg10 mi
11:15 AM32 °FScattered clouds.No wind71%30.16 "Hg10 mi
10:55 AM31 °FScattered clouds.3 mph73%30.18 "Hg10 mi
10:35 AM30 °FPartly sunny.3 mph75%30.18 "Hg10 mi
10:15 AM31 °FOvercast.No wind75%30.17 "Hg10 mi
9:55 AM30 °FOvercast.5 mph77%30.17 "Hg10 mi
9:35 AM30 °FOvercast.7 mph78%30.16 "Hg10 mi
9:15 AM30 °FOvercast.8 mph82%30.16 "Hg10 mi
8:55 AM29 °FOvercast.8 mph93%30.15 "Hg10 mi
8:35 AM29 °FOvercast.12 mph90%30.15 "Hg10 mi
8:15 AM29 °FOvercast.8 mph96%30.15 "Hg10 mi
7:55 AM28 °FOvercast.10 mph100%30.14 "Hg10 mi
7:15 AM28 °FMostly cloudy.10 mph100%30.14 "Hg7 mi
6:55 AM28 °FIce fog.9 mph100%30.14 "Hg4 mi
6:15 AM29 °FMostly cloudy.8 mph100%30.12 "Hg10 mi
5:55 AM29 °FIce fog.7 mph100%30.12 "Hg5 mi
5:35 AM29 °FIce fog.7 mph100%30.12 "Hg4 mi
5:15 AM29 °FIce fog.7 mph100%30.11 "Hg4 mi
4:55 AM29 °FIce fog.7 mph100%30.10 "Hg5 mi
4:35 AM29 °FIce fog.7 mph100%30.10 "Hg5 mi
4:15 AM29 °FOvercast.7 mph100%30.10 "Hg7 mi
3:55 AM29 °FOvercast.7 mph100%30.11 "Hg7 mi
3:35 AM29 °FOvercast.7 mph100%30.11 "Hg7 mi
3:15 AM29 °FOvercast.10 mph100%30.12 "Hg10 mi
2:55 AM29 °FOvercast.10 mph100%30.11 "Hg10 mi
2:15 AM29 °FOvercast.9 mph98%30.10 "Hg10 mi
1:55 AM29 °FMostly cloudy.8 mph96%30.10 "Hg10 mi
1:35 AM30 °FOvercast.8 mph98%30.09 "Hg10 mi
1:15 AM29 °FOvercast.8 mph100%30.09 "Hg10 mi
12:55 AM30 °FOvercast.10 mph100%30.10 "Hg10 mi
12:15 AM30 °FOvercast.9 mph98%30.10 "Hg10 mi
11:55 PM
Dec 20
30 °FOvercast.9 mph98%30.10 "Hg10 mi
11:35 PM31 °FOvercast.9 mph95%30.10 "Hg10 mi
11:15 PM30 °FOvercast.9 mph100%30.10 "Hg10 mi
10:55 PM30 °FOvercast.9 mph100%30.10 "Hg10 mi
10:15 PM30 °FMostly cloudy.8 mph100%30.10 "Hg7 mi
9:55 PM30 °FMostly cloudy.7 mph100%30.10 "Hg10 mi
9:35 PM30 °FOvercast.7 mph100%30.10 "Hg10 mi
9:15 PM31 °FOvercast.8 mph100%30.10 "Hg10 mi
8:55 PM30 °FOvercast.9 mph100%30.10 "Hg7 mi
8:15 PM30 °FOvercast.9 mph100%30.10 "Hg7 mi
7:55 PM31 °FOvercast.10 mph100%30.10 "Hg10 mi
7:15 PM31 °FOvercast.9 mph97%30.10 "Hg10 mi
6:55 PM31 °FOvercast.9 mph90%30.09 "Hg10 mi
6:15 PM31 °FOvercast.8 mph85%30.09 "Hg10 mi
Weather by CustomWeather, © 2014

See weather overviewHow to use our weather pages